User: anonymous   Login
Location: Mentone
(34.5413°N, 85.5351°W)
Time: 02:33:58
(UTC-06:00)
Language:

SL-8 R/B - Orbit

View from above orbital plane
View from above orbital plane
View from above satellite
View from above satellite

Ground track
Ground track

The orbit data is extracted from the following two-line orbital elements,

1 33066U 08031G   15029.54170030  .00000331  00000-0  88644-4 0    45
2 33066 048.4420 217.0993 0007250 041.0243 353.7742 14.69083720354879
Epoch (UTC): 29 January 2015 13:00:02
Eccentricity: 0.0007250
inclination: 48.4420°
perigee height: 659 km
apogee height: 669 km
right ascension of ascending node: 217.0993°
argument of perigee: 41.0243°
revolutions per day: 14.69083720
mean anomaly at epoch: 353.7742°
orbit number at epoch: 35487

The dashed part of the orbit path shows where the satellite is in the earth's shadow,  

DLR